Time,TemperatureF,DewpointF,PressureIn,WindDirection,WindDirectionDegrees,WindSpeedMPH,WindSpeedGustMPH,Humidity,HourlyPrecipIn,Conditions,Clouds,dailyrainin,SolarRadiationWatts/m^2,SoftwareType,DateUTC
2013-09-28 06:40:00,63.0,24.0,30.10,SSE,165,1.0,2.0,22,-99.99,,,-99.99,0.000000,,2013-09-28 13:40:00,
2013-09-28 07:40:00,63.0,22.0,30.11,ENE,61,1.0,2.0,21,-99.99,,,-99.99,16.000000,,2013-09-28 14:40:00,
2013-09-28 08:22:00,63.0,22.0,30.11,ENE,61,1.0,2.0,21,-99.99,,,-99.99,16.000000,,2013-09-28 15:22:00,
2013-09-28 08:34:00,63.0,22.0,30.11,ENE,61,1.0,2.0,21,-99.99,,,-99.99,16.000000,,2013-09-28 15:34:00,
2013-09-28 08:40:00,67.0,22.0,30.13,SW,232,0.0,2.0,18,-99.99,,,-99.99,352.000000,,2013-09-28 15:40:00,
2013-09-28 09:24:00,67.0,22.0,30.13,SW,232,0.0,2.0,18,-99.99,,,-99.99,352.000000,,2013-09-28 16:24:00,
2013-09-28 09:34:00,67.0,22.0,30.13,SW,232,0.0,2.0,18,-99.99,,,-99.99,352.000000,,2013-09-28 16:34:00,
2013-09-28 09:40:00,66.0,24.0,30.14,WSW,256,2.0,4.0,20,-99.99,,,-99.99,562.000000,,2013-09-28 16:40:00,
2013-09-28 10:23:00,66.0,24.0,30.14,WSW,256,2.0,4.0,20,-99.99,,,-99.99,562.000000,,2013-09-28 17:23:00,
2013-09-28 10:34:00,66.0,24.0,30.14,WSW,256,2.0,4.0,20,-99.99,,,-99.99,562.000000,,2013-09-28 17:34:00,
2013-09-28 10:40:00,67.0,26.0,30.15,West,262,4.0,5.0,21,-99.99,,,-99.99,730.000000,,2013-09-28 17:40:00,
2013-09-28 11:22:00,67.0,26.0,30.15,West,262,4.0,5.0,21,-99.99,,,-99.99,730.000000,,2013-09-28 18:22:00,
2013-09-28 11:32:00,67.0,26.0,30.15,West,262,4.0,5.0,21,-99.99,,,-99.99,730.000000,,2013-09-28 18:32:00,
2013-09-28 11:40:00,68.0,26.0,30.16,West,265,6.0,8.0,21,-99.99,,,-99.99,836.000000,,2013-09-28 18:40:00,
2013-09-28 12:21:00,68.0,26.0,30.16,West,265,6.0,8.0,21,-99.99,,,-99.99,836.000000,,2013-09-28 19:21:00,
2013-09-28 12:32:00,68.0,26.0,30.16,West,265,6.0,8.0,21,-99.99,,,-99.99,836.000000,,2013-09-28 19:32:00,
2013-09-28 12:40:00,68.0,25.0,30.15,West,266,6.0,9.0,20,-99.99,,,-99.99,880.000000,,2013-09-28 19:40:00,
2013-09-28 13:22:00,68.0,25.0,30.15,West,266,6.0,9.0,20,-99.99,,,-99.99,880.000000,,2013-09-28 20:22:00,
2013-09-28 13:33:00,68.0,25.0,30.15,West,266,6.0,9.0,20,-99.99,,,-99.99,880.000000,,2013-09-28 20:33:00,
2013-09-28 13:40:00,70.0,26.0,30.13,West,275,6.0,10.0,19,-99.99,,,-99.99,863.000000,,2013-09-28 20:40:00,
2013-09-28 14:22:00,70.0,26.0,30.13,West,275,6.0,10.0,19,-99.99,,,-99.99,863.000000,,2013-09-28 21:22:00,
2013-09-28 14:34:00,70.0,26.0,30.13,West,275,6.0,10.0,19,-99.99,,,-99.99,863.000000,,2013-09-28 21:34:00,
2013-09-28 14:40:00,70.0,26.0,30.12,West,274,6.0,8.0,19,-99.99,,,-99.99,777.000000,,2013-09-28 21:40:00,
2013-09-28 15:40:00,73.0,22.0,30.11,West,271,4.0,8.0,15,-99.99,,,-99.99,637.000000,,2013-09-28 22:40:00,
2013-09-28 16:22:00,73.0,22.0,30.11,West,271,4.0,8.0,15,-99.99,,,-99.99,637.000000,,2013-09-28 23:22:00,
2013-09-28 16:34:00,73.0,22.0,30.11,West,271,4.0,8.0,15,-99.99,,,-99.99,637.000000,,2013-09-28 23:34:00,
2013-09-28 16:40:00,73.0,24.0,30.11,West,274,4.0,7.0,16,-99.99,,,-99.99,446.000000,,2013-09-28 23:40:00,
2013-09-28 17:22:00,73.0,24.0,30.11,West,274,4.0,7.0,16,-99.99,,,-99.99,446.000000,,2013-09-29 00:22:00,
2013-09-28 17:32:00,73.0,24.0,30.11,West,274,4.0,7.0,16,-99.99,,,-99.99,446.000000,,2013-09-29 00:32:00,
2013-09-28 17:40:00,73.0,24.0,30.11,West,277,4.0,7.0,16,-99.99,,,-99.99,232.000000,,2013-09-29 00:40:00,
2013-09-28 18:21:00,73.0,24.0,30.11,West,277,4.0,7.0,16,-99.99,,,-99.99,232.000000,,2013-09-29 01:21:00,
2013-09-28 18:32:00,73.0,24.0,30.11,West,277,4.0,7.0,16,-99.99,,,-99.99,232.000000,,2013-09-29 01:32:00,
2013-09-28 19:40:00,68.0,20.0,30.12,NE,52,5.0,6.0,16,-99.99,,,-99.99,0.000000,,2013-09-29 02:40:00,
2013-09-28 20:23:00,68.0,20.0,30.12,NE,52,5.0,6.0,16,-99.99,,,-99.99,0.000000,,2013-09-29 03:23:00,
2013-09-28 20:34:00,68.0,20.0,30.12,NE,52,5.0,6.0,16,-99.99,,,-99.99,0.000000,,2013-09-29 03:34:00,